Regional Weather Roundup
Issued by NWS Upton, NY

Current Version | Previous Version | Text Only | Print | Product List | Glossary On
Versions: 1 2 3 4 5 6 7 8 9 10 11 12 13 14 15 16 17 18 19 20 21 22 23 24 25 26 27 28
000
ASUS41 KOKX 190308
RWROKX

REGIONAL WEATHER ROUNDUP
NATIONAL WEATHER SERVICE NEW YORK NY
1000 PM EST WED JAN 18 2017

NOTE: "FAIR" INDICATES FEW OR NO CLOUDS BELOW 12,000 FEET WITH NO
SIGNIFICANT WEATHER AND/OR OBSTRUCTIONS TO VISIBILITY.

NYZ071-072-176-178-NJZ106-104-190400-
NEW YORK CITY METRO AREA

CITY           SKY/WX    TMP DP  RH WIND       PRES   REMARKS
Central Park   CLOUDY    40  36  86 N8        30.05S WCI  34
Wall St Helipt CLOUDY    42  37  82 W6        30.04R
Bronx Bot Gard NOT AVBL
LaGuardia APRT CLOUDY    42  36  79 N8        30.02S
Kennedy INTL   MOCLDY    41  35  79 N8        30.03F
Breezy Point   NOT AVBL
Newark/Liberty MOCLDY    41  36  82 NW6       30.04R
Teterboro      MOCLDY    41  37  86 CALM      30.03F
$$

NYZ177-179-078>081-190400-
LONG ISLAND NEW YORK

CITY           SKY/WX    TMP DP  RH WIND       PRES   REMARKS
Jones Beach    NOT AVBL
Matinecock PT  NOT AVBL
Farmingdale    CLOUDY    39  36  89 N9        30.01F WCI  33
MacArthur/ISP  CLOUDY    38  37  97 N6        29.99F WCI  33
Shirley        CLOUDY    38  36  92 N6        30.00F WCI  33
Westhampton    CLOUDY    38  36  92 N6        30.02S WCI  33
Southampton    NOT AVBL
Bridgehampton  NOT AVBL
East Hampton   CLOUDY    37  36  94 N5        29.99S WCI  34
Montauk          N/A     39  38  96 N8        29.99F WCI  33
$$

NYZ052-065-067-190400-
HUDSON VALLEY

CITY           SKY/WX    TMP DP  RH WIND       PRES   REMARKS
White Plains   MOCLDY    38  35  89 NW7       30.01S WCI  33
Newburgh       CLOUDY    36  36 100 CALM      30.03F FOG
Montgomery     CLOUDY    36  34  92 CALM      30.01S FOG
Poughkeepsie   FOG       35  35 100 CALM      30.03R VSB 1/2
Albany         DRIZZLE   36  34  92 S6        30.02F FOG     WCI  31
$$

NJZ001-105-106-008-010-013-015-019>022-104-190400-
NEW JERSEY

CITY           SKY/WX    TMP DP  RH WIND       PRES   REMARKS
Newark/Liberty MOCLDY    41  36  82 NW6       30.04R
Teterboro      MOCLDY    41  37  86 CALM      30.03F
Caldwell       CLOUDY    39  37  92 CALM      30.04R
Somerville     CLOUDY    39  37  92 CALM      30.03R
Linden         MOCLDY    39  36  87 CALM      30.04R
Sussex         LGT RAIN  36  35  96 CALM      30.03R FOG
Andover          N/A     35  35 100 CALM      30.03R
Trenton        CLOUDY    40  38  93 CALM      30.03R
Millville      CLOUDY    44  41  89 NW5       30.05R
Atlantic City  CLEAR     37  34  89 NW6       30.04R WCI  32
Wrightstown    PTCLDY    38  35  90 NW7       30.01R WCI  32
Toms River     PTCLDY    34  34 100 NW5       30.03F FOG     WCI  30
Belmar         CLOUDY    39  37  92 NW3       30.02F
$$

PAZ047>061-062-071-190400-
EASTERN PENNSYLVANIA

CITY           SKY/WX    TMP DP  RH WIND       PRES   REMARKS
Philadelphia   CLOUDY    45  38  76 N3        30.05S
Allentown      CLOUDY    43  37  79 W3        30.03S
Scranton       CLOUDY    38  38 100 CALM      30.01S FOG
$$

CTZ002-004>006-009-010-012-RIZ004-006-007-MAZ004-011-015-190400-
SOUTHERN NEW ENGLAND
 IN CT

CITY           SKY/WX    TMP DP  RH WIND       PRES   REMARKS
Bradley INTL   DRIZZLE   35  33  92 N5        30.02S WCI  31
Hartford       CLOUDY    36  33  89 N5        30.03R WCI  32
Danbury        CLOUDY    35  34  96 CALM      30.03R
Wtrbury/Oxford CLOUDY    36  30  80 N6        30.01R WCI  31
Bridgeport     CLOUDY    40  35  83 N5        30.01S
Meriden        CLOUDY    37  33  85 N6        30.02S WCI  32
New Haven      CLOUDY    36  34  92 N10       30.01S WCI  28
Chester        FOG       36  36 100 N5        29.99S VSB 1/2 WCI  32
Groton         CLOUDY    37  34  89 N8        29.99F WCI  31
Wilimantic     CLOUDY    37  35  92 CALM      30.01F

 IN RI

CITY           SKY/WX    TMP DP  RH WIND       PRES   REMARKS
Providence     CLOUDY    35  34  96 N8        30.01F FOG     WCI  29
Block Island   NOT AVBL
Westerly       CLOUDY    38  35  89 N6        30.00F WCI  33
 IN MA

CITY           SKY/WX    TMP DP  RH WIND       PRES   REMARKS
Boston         CLOUDY    33  33 100 N8        30.01F WCI  26
Worcester      FOG       30  29  96 N6        29.97F VSB 1/2 WCI  24
Westfield      CLOUDY    34  33  96 N5        30.02S WCI  30
Provincetown   CLOUDY    40  35  83 E9        30.00F WCI  34
Nantucket      CLOUDY    41  39  93 NE9       29.96F FOG
$$

ANZ330-335-338-340-345-350-353-355-190400-
COASTAL MARINE OBSERVATIONS


STATION/POSITION TIME  SKY/WX   TEMP    WIND        PRES    VSBY  WAVE
                                AIR SEA DIR/SP/G                  HT/PER
                 (UTC)          (F)     (DEG/KT/KT) (MB)    (MI)  (FT/S)
NY HARB ENTRANCE 0150            41 44  360/ 12/ 14 1016.3          5/ 8
20 S FIRE ISLAND 0250            41 45   20/ 14/ 17 1015.2          6/ 7
GREAT SOUTH BAY  NOT AVBL
23 SSW MONTAUK P 0150            42 47   10/ 17/ 19 1015.9          7/ 8
15 E BARNEGAT LI 0230               48                N/A           5/ 7
HUDSON CANYON    0150            48 52              1014.0          7/ 6
KINGS POINT      0242            39 39              1016.4
EXECUTION ROCKS  0245            39     350/  2/  2   N/A
CENTRAL LI SOUND 0230            38      20/ 10/ 12   N/A           1/ 2
EASTERN LI SOUND NOT AVBL
ROBBINS REEF     0242            40     330/  7/ 10 1017.1
$$


>>>>>>>>>>>>>>>>>>>>>>>>>>>> KEY <<<<<<<<<<<<<<<<<<<<<<<<<<<
>                                                          <
>     SKY/WX - Sky Condition/Present Weather               <
>     TMP    - Temperature in Fahrenheit                   <
>     DP     - Dew Point in Fahrenheit                     <
>     RH     - Relative Humidity in Percent                <
>     WIND   - Direction (from) and Speed in MPH           <
>     PRES   - Mean Sea Level Pressure (inches of Hg)      <
>     WCI    - Wind Chill Index                            <
>     VSB    - VISIBILITY IN MILES                         <
>     HX     - HEAT INDEX                                  <
>     TC     - TEMPERATURE IN CELSIUS                      <
>     VRB    - VARIABLE WIND DIRECTION                     <
>                                                          <
>>>>>>>>>>>>>>>>>>>>>>>>>>>> KEY <<<<<<<<<<<<<<<<<<<<<<<<<<<




USA.gov is the U.S. government's official web portal to all federal, state and local government web resources and services.